OBJECT XK, 65731

Orbit data source: Space-Track

You're viewing an Uncataloged Satellite

Recently launched and/or uncataloged satellites may have evolving metadata. Metadata may include but not limited to: Owner, Maufacturer, Bus, Motor, and Mission.

OBJECT XK, 65731 is a Japanese satellite in LEO that was delivered to and deployed from the ISS. Unknown objects in Earth's orbit typically refer to objects detected orbiting the Earth but have not yet been identified or cataloged. These objects could be anything from previously untracked satellites, spent rocket stages, debris from satellite collisions, or even natural meteoroids temporarily captured by Earth's gravity.

Loading next visibility...
Identifier
65731, 1998-067XK
Orbit
LEO
Country
Flag of JPJP / JPN
Related business
None
Manufacturer
Unknown
Mission
Operational spacecraft
Bus & Motor
Unknown
Mass
Unknown
Launch date (UTC)
1998-11-20 (27 years ago)
Launch vehicle
FALCON 9
Launch site
Tyuratam Missile And Space Complex (TTMTR)
Object type
Unknown
Shape & HBR
Unknown shape, 0.1 m
Radar Cross Section
RCS unknown

Expand to show TLE details & history
Last TLE update: 1 day ago

TLE from 1 day ago
0 OBJECT XK
1 65731U 98067XK  25348.39346434  .00110677  00000-0  10467-2 0  9992
2 65731  51.6278 128.8403 0004899 257.8165 102.2282 15.66124170 13401
Epoch: 2025-12-14T09:26Z
TLE epoch observation values (Epoch: 2025-12-14T09:26:35.318Z)
Latitude
-0.00005°
Longitude
-96.11392°
Altitude
371.455 km
Speed
7.688 km/s
True Right ascension
08h 35m 21s
True Declination
0° 00' 00"
Sunlit
Object was in full shadow at epoch
Visualization orbit readout
Latitude
Unknown
Longitude
Unknown
Altitude
Unknown
Speed
Unknown
Apparent Right ascension
Unknown
Apparent Declination
Unknown
Sunlit
N/A
Visualization observer readout
Local Sidereal Time
13:22:54
Azimuth
Unknown
Elevation
Unknown
Doppler factor
Unknown
Orbital elements
Apogee altitude
373.827 km
Perigee altitude
367.215 km
Semi-major axis
6,748.658 km
Eccentricity
0.00049
Inclination
51.6278°
RAAN
128.8403°
Arg. of periapsis
257.8165°
True anomaly
102.28306°
Mean anomaly
102.2282°
Eccentric anomaly
102.25563°
Mean motion
3.91487 °/min
Orbital period
91.96 mins
BSTAR
0.0010467
Loading maneuver chart data...
Computing Atmospheric mass density...

Documentation

Showing up to 5 results
|